Regional Weather Roundup
Issued by NWS

Home | Current Version | Previous Version | Text Only | Print | Product List | Glossary Off
Versions: 1 2 3 4 5 6 7 8 9 10 11 12 13 14 15 16 17 18 19 20 21 22 23 24 25 26 27 28 29 30 31 32 33 34 35 36 37 38 39 40 41 42 43 44 45 46 47 48 49 50

000
ASUS43 KBIS 280502
RWRND

NORTH DAKOTA REGIONAL WEATHER ROUNDUP
NATIONAL WEATHER SERVICE BISMARCK ND
1200 AM CDT FRI APR 28 2017

NOTE: "FAIR" INDICATES FEW OR NO CLOUDS BELOW 12,000 FEET WITH NO
SIGNIFICANT WEATHER AND/OR OBSTRUCTIONS TO VISIBILITY.


NDZ001>003-009>011-017-280600-
NORTHWEST NORTH DAKOTA

CITY           SKY/WX    TMP DP  RH WIND       PRES   REMARKS
WILLISTON      FAIR      39  13  34 E8        29.85R
MINOT          FAIR      32  25  75 N3        29.86R
MINOT AFB      CLEAR     37  26  65 NE3       29.86R
$$

NDZ018>021-031>035-040>046-280600-
SOUTHWEST NORTH DAKOTA

CITY           SKY/WX    TMP DP  RH WIND       PRES   REMARKS
BISMARCK       FAIR      36  27  69 NE8       29.85R
DICKINSON      FAIR      32  16  51 E6        29.80R
GARRISON         N/A     37  26  64 E8        29.84R
HETTINGER ARPT CLEAR     32  23  69 E6        29.81R
$$

NDZ004>008-012>016-024-026-027-054-280600-
NORTHEAST NORTH DAKOTA

CITY           SKY/WX    TMP DP  RH WIND       PRES   REMARKS
GRAND FORKS    MOCLDY    33  29  85 NW5       29.83R
GRND FRKS AFB  MOCLDY    31  28  88 NW6       29.83R
DEVILS LAKE    FAIR      35  28  75 CALM      29.85R
$$

NDZ022-023-025-028>030-036>039-047>053-280600-
SOUTHEAST NORTH DAKOTA

CITY           SKY/WX    TMP DP  RH WIND       PRES   REMARKS
FARGO          MOCLDY    36  29  75 NW17G25   29.82R
JAMESTOWN      CLOUDY    38  30  73 NE9       29.83R
$$





USA.gov is the U.S. government's official web portal to all federal, state and local government web resources and services.